Weather History for Liberia, Costa Rica

Change the Weather History Date:

Wednesday, December 12, 2012

  Actual Average Record
Temperature  
Mean Temperature 84 °F -  
Max Temperature 95 °F 87 °F 95 °F (2012)
Min Temperature 74 °F 72 °F 66 °F (2010)
Cooling Degree Days 20    
Growing Degree Days 34 (Base 50)    
Moisture  
Dew Point 66 °F    
Average Humidity 50    
Maximum Humidity 78    
Minimum Humidity 28    
Precipitation  
Precipitation 0.00 in - - ()
Sea Level Pressure  
Sea Level Pressure 29.81 in    
Wind  
Wind Speed 11 mph ()    
Max Wind Speed 20 mph    
Max Gust Speed -    
Visibility 7.7 miles    
Events      
Averages and records for this station are not official NWS values.
T = Trace of Precipitation, MM = Missing Value Source: Averaged Metar Reports

Daily Weather History Graph

Daily Weather History Graph

Search for Another Location

Airport:

Trip Planner

Search our weather history database for the weather conditions in past years. The results will help you decide how hot, cold, wet, or windy it might be!

Date:

Astronomy

Dec. 12, 2012 Rise Set
Actual Time 5:50 AM CST 5:21 PM CST
Civil Twilight 5:27 AM CST 5:44 PM CST
Nautical Twilight 5:01 AM CST 6:10 PM CST
Astronomical Twilight 4:35 AM CST 6:37 PM CST
Moon 4:58 AM CST (12/12) 4:54 PM CST (12/12)
Length of Visible Light 12h 16m
Length of Day
11h 30m
Waning Crescent, 1% of the Moon is Illuminated
Dec 12
Waning Crescent
Dec 13
New
Dec 19
First Quarter
Dec 28
Full
Jan 4
Last Quarter

Hourly Weather History & Observations

Time (CST) Temp. Heat Index Dew Point Humidity Pressure Visibility Wind Dir Wind Speed Gust Speed Precip Events Conditions
6:00 AM 78 °F - 69 °F 67% 29.84 in 12 mi SW 5.8 mph - -   Scattered Clouds
6:00 AM 77.0 °F - 69.8 °F 78% 29.83 in 6.2 mi SW 5.8 mph - N/A   Scattered Clouds
7:00 AM 78.8 °F - 69.8 °F 74% 29.84 in 6.2 mi WNW 5.8 mph - N/A   Scattered Clouds
8:00 AM 84.2 °F 86.6 °F 66.2 °F 55% 29.85 in 6.2 mi NE 9.2 mph - N/A   Mostly Cloudy
9:00 AM 87 °F - 65 °F 37% 29.86 in 12 mi ENE 19.6 mph - -   Scattered Clouds
9:00 AM 87.8 °F 89.4 °F 64.4 °F 46% 29.85 in 6.2 mi ENE 19.6 mph - N/A   Mostly Cloudy
10:00 AM 89.6 °F 91.1 °F 64.4 °F 43% 29.84 in 6.2 mi ENE 15.0 mph - N/A   Mostly Cloudy
11:00 AM 91.4 °F 91.4 °F 60.8 °F 36% 29.83 in 6.2 mi ENE 18.4 mph - N/A   Mostly Cloudy
12:00 PM 93 °F - 64 °F 28% 29.82 in 12 mi NE 15.0 mph - -   Scattered Clouds
12:00 PM 93.2 °F 94.9 °F 64.4 °F 38% 29.80 in 6.2 mi NE 15.0 mph - N/A   Mostly Cloudy
1:00 PM 93.2 °F 94.1 °F 62.6 °F 36% 29.78 in 6.2 mi NE 13.8 mph - N/A   Mostly Cloudy
2:00 PM 91.4 °F 94.0 °F 66.2 °F 43% 29.76 in 6.2 mi East 16.1 mph - N/A   Mostly Cloudy
3:00 PM 92 °F - 65 °F 30% 29.76 in 12 mi ENE 15.0 mph - -   Scattered Clouds
3:00 PM 91.4 °F 93.2 °F 64.4 °F 41% 29.75 in 6.2 mi ENE 15.0 mph - N/A   Mostly Cloudy
4:00 PM 89.6 °F 93.4 °F 68.0 °F 49% 29.75 in 6.2 mi ENE 15.0 mph - N/A   Mostly Cloudy
5:00 PM 84.2 °F 87.3 °F 68.0 °F 58% 29.78 in 6.2 mi ENE 18.4 mph - N/A   Mostly Cloudy
6:00 PM 81 °F - 67 °F 55% 29.81 in 12 mi ENE 17.3 mph - -   Overcast
6:00 PM 80.6 °F 83.2 °F 68.0 °F 65% 29.79 in 6.2 mi ENE 17.3 mph - N/A   Mostly Cloudy
7:00 PM 80.6 °F 82.7 °F 66.2 °F 61% 29.80 in 6.2 mi East 18.4 mph - N/A   Mostly Cloudy
8:00 PM 80.6 °F 83.2 °F 68.0 °F 65% 29.83 in 6.2 mi ENE 19.6 mph - N/A   Mostly Cloudy